Tracking 18856 objects as of 12-Dec-2017
HD Live streaming from Space Station
objects crossing your sky now

OPS 5058 (DMSP 5B F2)

Track OPS 5058 (DMSP 5B F2) now!
10-day predictions
OPS 5058 (DMSP 5B F2) is classified as:


NORAD ID: 5903
Int'l Code: 1972-018A
Perigee: 781.5 km
Apogee: 856.3 km
Inclination: 99.0 °
Period: 101.1 minutes
Semi major axis: 7189 km
RCS: 1.4687 m2 (large)
Launch date: March 24, 1972
Source: United States (US)
Launch site: AIR FORCE WESTERN TEST RANGE (AFWTR)
aabbcc
Your satellite tracking list
Your tracking list is empty




NASA's NSSDC Master Catalog

Two Line Element Set (TLE):
1  5903U 72018A   17345.83924209 +.00000008 +00000-0 +23378-4 0  9997
2  5903 098.9700 056.5359 0051984 040.0857 320.4138 14.24027539447548
Source of the keplerian elements: AFSPC